Starlink 11352

operational
NORAD ID: 62880 Int'l Des: 2025-024 Owner: SPXS Country: US Constellation: starlink
LEOCIRCULAR

Über Starlink 11352

Beschreibung wird geladen...

Live-Position

3D-Globus wird geladen...

Nächste Überflüge

Höhenverlauf

Altitude vs Time

uPlot chart will show altitude changes over time

Zweizeiliger Elementsatz

1 62880U 25024B 25353.15835216 .00159932 00000-0 12249-2 0 9995
2 62880 42.9998 306.6475 0001801 257.1827 102.8840 15.70861210 50807
Epoch: 19. Dez. 2025 • Age: 22 hours

Aktueller Status

Höhe 359.2 km
Geschwindigkeit 7.70 km/s
Subsatellitenpunkt 40.23°N, 56.55°W
Startdatum 4. Feb. 2025
Alter 0.8 years
Typ internet

Technische Details

Klassifizierung Payload
Masse 960.00 kg
Trockenmasse 910.00 kg
Gesamtmasse 960.00 kg
Länge 0.30 m
Durchmesser 4.10 m
Spannweite 29.00 m
Form Box + pan
Hersteller SPXS
Bus-Typ Starlink V2MD
Phasenstatus In Orbit
Besitzer/Staat SPXS/US

Große Konstellationen

Loading constellations...